View from above orbital plane
|
View from above satellite
|
Ground track
|
The orbit data is extracted from the following two-line orbital elements,
1 41783U 16059A 21023.55105390 .00000057 00000-0 20199-4 0 9997
2 41783 97.9874 78.4560 0033083 345.1061 14.9163 14.63106844231069
Epoch (UTC): | 23 January 2021 13:13:31 |
Eccentricity: | 0.0033083 |
inclination: | 97.9874° |
perigee height: | 660 km |
apogee height: | 706 km |
right ascension of ascending node: | 78.4560° |
argument of perigee: | 345.1061° |
revolutions per day: | 14.63106844 |
mean anomaly at epoch: | 14.9163° |
orbit number at epoch: | 23106 |
The dashed part of the orbit path shows where the satellite is in the earth's shadow,
|
|